FW5987 Weather Reports


Display with metric or nautical units.
time (UTC)temp
F
wind
direction
speed
MPH
gust
MPH
rain 1hr
in
rain 24hr
in
rain mn
in
humidity
%
barometer
mb
20260510031505 64 207 0.0 2.0 0.00 0.00 0.00 69 1011.1
20260510030030 65 207 1.0 3.0 0.00 0.00 0.00 68 1011.0
20260510024555 65 207 0.0 3.0 0.00 0.00 0.00 67 1010.9
20260510023016 66 207 0.0 3.0 0.00 0.00 0.00 65 1010.6
20260510021544 67 207 2.0 4.0 0.00 0.00 0.00 63 1010.4
20260510020058 68 207 0.0 2.0 0.00 0.00 0.00 62 1010.2
20260510014526 69 207 0.0 3.0 0.00 0.00 0.00 61 1010.1
20260510013105 69 207 2.0 7.0 0.00 0.00 0.00 60 1009.8
20260510011524 69 202 3.0 6.0 0.00 0.00 0.00 60 1009.5
20260510010047 70 200 3.0 7.0 0.00 0.00 0.00 59 1009.3
20260510004600 70 200 2.0 6.0 0.00 0.00 0.00 58 1009.1
20260510003037 71 200 2.0 5.0 0.00 0.00 0.00 57 1009.0
20260510001547 72 199 3.0 6.0 0.00 0.00 0.00 55 1008.7
20260510000021 73 198 3.0 8.0 0.00 0.00 0.00 53 1008.6
20260509234550 73 198 2.0 10.0 0.00 0.00 0.00 52 1008.7
20260509233023 74 200 2.0 7.0 0.00 0.00 0.00 51 1008.5
20260509231543 75 214 3.0 7.0 0.00 0.00 0.00 50 1008.5
20260509230003 75 217 3.0 7.0 0.00 0.00 0.00 50 1008.5
20260509224535 76 212 4.0 10.0 0.00 0.00 0.00 48 1008.4
20260509223052 76 212 4.0 10.0 0.00 0.00 0.00 48 1008.4
20260509221510 76 201 5.0 11.0 0.00 0.00 0.00 47 1008.4
20260509220042 75 221 4.0 11.0 0.00 0.00 0.00 49 1008.4
20260509214504 76 192 4.0 12.0 0.00 0.00 0.00 47 1008.4
20260509213039 78 205 6.0 14.0 0.00 0.00 0.00 44 1008.2
20260509211559 78 227 3.0 10.0 0.00 0.00 0.00 43 1008.3
20260509210015 78 165 5.0 12.0 0.00 0.00 0.00 45 1008.2
20260509204555 76 202 4.0 9.0 0.00 0.00 0.00 43 1008.2
20260509203038 78 279 5.0 11.0 0.00 0.00 0.00 42 1008.0
20260509201602 79 215 5.0 11.0 0.00 0.00 0.00 39 1008.1
20260509200033 80 184 4.0 12.0 0.00 0.00 0.00 41 1008.1
20260509194556 79 227 5.0 17.0 0.00 0.00 0.00 38 1008.4
20260509193015 77 221 5.0 13.0 0.00 0.00 0.00 40 1008.5
20260509191542 77 178 7.0 12.0 0.00 0.00 0.00 43 1008.7
20260509184550 78 207 4.0 12.0 0.00 0.00 0.00 43 1009.0
20260509183103 76 223 3.0 11.0 0.00 0.00 0.00 45 1009.3
20260509181527 76 207 5.0 10.0 0.00 0.00 0.00 46 1009.7
20260509180048 75 186 6.0 11.0 0.00 0.00 0.00 49 1010.1
20260509174517 73 238 2.0 11.0 0.00 0.00 0.00 52 1010.2
20260509173030 71 200 5.0 17.0 0.00 0.00 0.00 55 1010.5
20260509171555 73 229 4.0 10.0 0.00 0.00 0.00 54 1010.6
20260509170037 70 190 5.0 10.0 0.00 0.00 0.00 57 1010.7
20260509164554 70 239 3.0 7.0 0.00 0.00 0.00 57 1010.6
20260509163021 68 211 2.0 8.0 0.00 0.00 0.00 59 1010.7
20260509161542 67 194 4.0 11.0 0.00 0.00 0.00 59 1010.8
20260509160007 67 172 7.0 15.0 0.00 0.00 0.00 59 1011.0
20260509154543 65 188 4.0 10.0 0.00 0.00 0.00 61 1011.0
20260509153104 65 204 5.0 10.0 0.00 0.00 0.00 61 1011.2
20260509151523 65 209 5.0 10.0 0.00 0.00 0.00 60 1011.4
20260509150055 64 200 5.0 11.0 0.00 0.00 0.00 60 1011.3
20260509144528 63 171 4.0 11.0 0.00 0.00 0.00 61 1011.4
20260509143050 62 167 4.0 10.0 0.00 0.00 0.00 63 1011.2
20260509141509 61 171 4.0 10.0 0.00 0.00 0.00 63 1011.5
20260509140028 60 175 2.0 8.0 0.00 0.00 0.00 65 1011.8
20260509134542 59 200 2.0 5.0 0.00 0.00 0.00 65 1011.8
20260509133104 58 200 2.0 7.0 0.00 0.00 0.00 66 1011.9
20260509131535 57 203 2.0 10.0 0.00 0.00 0.00 66 1012.1
20260509130100 57 174 4.0 8.0 0.00 0.00 0.00 65 1012.1
20260509124529 56 173 4.0 7.0 0.00 0.00 0.00 65 1012.1
20260509123045 55 173 5.0 7.0 0.00 0.00 0.00 65 1012.1
20260509121515 55 172 1.0 4.0 0.00 0.00 0.00 65 1012.2
20260509120111 55 184 2.0 5.0 0.00 0.00 0.00 65 1012.0
20260509114514 54 183 2.0 5.0 0.00 0.00 0.00 66 1012.0
20260509113050 54 184 2.0 7.0 0.00 0.00 0.00 66 1012.0
20260509111504 53 183 4.0 7.0 0.00 0.00 0.00 66 1012.0
20260509110039 53 182 2.0 5.0 0.00 0.00 0.00 66 1011.9
20260509104553 53 182 1.0 5.0 0.00 0.00 0.00 66 1012.0
20260509103008 53 182 2.0 6.0 0.00 0.00 0.00 65 1012.0
20260509101544 53 182 3.0 6.0 0.00 0.00 0.00 64 1011.8
20260509100100 53 180 2.0 7.0 0.00 0.00 0.00 63 1011.9
20260509094536 54 178 2.0 5.0 0.00 0.00 0.00 63 1011.9
20260509093056 54 178 1.0 7.0 0.00 0.00 0.00 62 1011.9
20260509091510 54 178 2.0 8.0 0.00 0.00 0.00 61 1012.1
20260509090043 54 178 2.0 5.0 0.00 0.00 0.00 61 1012.0
20260509084502 54 178 3.0 8.0 0.00 0.00 0.00 61 1012.0
20260509083032 54 178 3.0 8.0 0.00 0.00 0.00 60 1012.2
20260509081557 55 177 4.0 9.0 0.00 0.00 0.00 59 1012.3
20260509080022 56 178 6.0 9.0 0.00 0.00 0.00 56 1012.3
20260509074540 56 179 5.0 8.0 0.00 0.00 0.00 55 1012.3
20260509073136 56 185 3.0 5.0 0.00 0.00 0.00 56 1012.5
20260509071510 56 184 3.0 7.0 0.00 0.00 0.00 55 1012.4
20260509070044 57 185 4.0 6.0 0.00 0.00 0.00 54 1012.9
20260509064502 57 192 2.0 6.0 0.00 0.00 0.00 54 1012.9
20260509063031 57 192 3.0 7.0 0.00 0.00 0.00 53 1013.0
20260509061539 57 192 2.0 6.0 0.00 0.00 0.00 53 1013.2
20260509060006 57 187 2.0 6.0 0.00 0.00 0.00 54 1013.3
20260509054550 57 186 3.0 6.0 0.00 0.00 0.00 54 1013.3
20260509053014 57 185 0.0 1.0 0.00 0.00 0.00 54 1013.3
20260509051542 58 185 1.0 6.0 0.00 0.00 0.00 51 1013.1
20260509050059 58 181 2.0 7.0 0.00 0.00 0.00 51 1013.2
20260509044530 59 179 3.0 8.0 0.00 0.00 0.00 51 1013.1
20260509043047 59 190 3.0 6.0 0.00 0.00 0.00 51 1013.1
20260509041604 59 196 2.0 4.0 0.00 0.00 0.00 49 1013.2
20260509040043 60 198 1.0 8.0 0.00 0.00 0.00 48 1013.3
20260509034556 60 205 5.0 9.0 0.00 0.00 0.00 48 1013.4
20260509033028 61 192 3.0 7.0 0.00 0.00 0.00 48 1013.5